Wind_Speed
19 19 19 19 19 18 18 17 16 15 14 14 13 14 15 14 15 16 18 18 18 18 17 15 14 14 13 12 12 11 9 5 2 5 4 4 6 7 9 10 11 11 10 7 4 3 4 1 3 6 7 4 6 8 9 10 11 8 2 3 5 5 3 1 3 5 4 5 7 11 16 11 9 17 20 20 22 25 24 21 18 24 21 28 31 36 46 43
20 20 20 19 19 19 18 17 17 16 14 14 14 14 15 14 15 17 18 18 18 17 15 14 13 12 11 10 10 10 8 4 0 2 2 5 7 7 8 10 9 6 6 3 3 1 3 3 4 6 9 6 6 8 8 7 10 8 2 3 5 2 2 5 7 7 7 8 10 16 20 14 10 15 17 12 15 19 13 14 12 18 16 24 27 36 46 47
20 20 20 20 20 20 19 18 18 16 15 15 15 15 15 15 16 17 18 18 17 15 13 12 12 10 9 9 9 9 7 5 3 3 4 6 9 8 7 8 7 6 5 1 3 1 5 6 5 9 11 8 7 9 9 5 7 8 5 5 3 0 5 11 13 12 14 14 10 16 23 21 17 19 18 11 11 15 9 6 3 8 11 20 25 35 37 40
21 21 21 21 21 21 20 19 18 17 17 16 16 15 16 17 17 18 18 17 15 13 12 11 11 9 8 9 8 8 7 6 5 6 6 7 11 10 6 4 5 6 5 1 1 2 6 6 7 10 10 8 6 6 6 7 6 5 6 5 2 2 6 14 19 21 24 23 17 17 20 21 25 23 15 11 9 9 10 4 10 11 13 21 32 42 33 28
21 21 21 22 22 22 21 20 19 18 17 16 16 16 17 18 18 18 17 15 13 12 11 10 9 7 8 8 7 8 7 3 3 6 6 9 14 10 3 2 3 4 3 2 3 4 7 9 11 10 6 5 6 3 4 9 9 5 5 6 7 7 7 14 21 23 26 27 22 17 15 16 25 25 15 10 7 6 9 9 8 17 19 26 36 46 42 33
21 21 21 22 22 22 21 20 19 18 17 17 16 17 18 18 18 17 16 14 13 12 11 9 8 7 6 6 6 9 7 2 4 7 8 13 15 8 3 3 3 2 1 3 7 8 10 14 13 9 4 3 4 4 7 11 7 4 6 7 13 14 11 17 22 22 24 24 20 16 18 16 15 22 20 10 8 12 17 18 9 16 19 27 36 41 40 37
20 20 21 21 22 21 21 19 18 17 16 17 17 18 18 17 17 16 14 13 13 12 11 8 6 6 4 5 7 8 7 3 7 10 10 14 12 5 7 6 6 3 2 5 9 11 15 17 12 8 3 2 5 5 10 15 10 3 4 6 12 16 16 21 23 22 22 21 23 20 18 12 3 13 21 13 12 20 21 20 11 19 22 28 35 36 38 39
19 20 20 20 21 21 20 18 17 16 16 17 18 18 17 16 16 14 13 12 13 12 10 7 6 6 4 5 7 7 7 5 8 9 11 13 9 5 8 7 8 6 4 6 10 13 17 15 11 10 4 1 5 6 9 11 8 2 3 7 10 12 14 16 16 17 16 15 19 15 9 6 2 9 18 15 13 17 17 17 13 19 27 33 39 43 46 43
19 19 19 19 20 20 20 17 16 15 16 18 18 17 16 15 14 13 12 11 12 9 8 7 6 7 5 6 7 5 6 7 7 9 11 11 8 6 8 7 8 8 7 7 10 12 14 12 13 13 3 3 6 6 10 6 3 6 7 11 10 12 13 12 12 13 13 11 11 8 6 8 9 9 12 17 14 16 18 17 12 17 29 35 43 51 51 43
19 19 19 19 19 20 19 17 15 15 17 18 18 16 15 14 13 11 10 10 10 7 6 6 7 7 6 7 6 4 8 8 7 10 10 9 8 6 8 9 9 9 8 9 10 10 13 12 15 14 4 6 7 8 11 4 6 14 15 15 11 11 14 12 11 14 13 10 8 6 6 12 14 6 6 19 19 16 18 18 12 16 31 32 37 44 46 42
20 20 19 19 20 20 19 16 15 16 17 18 17 15 14 13 11 9 8 9 7 5 5 5 6 8 8 9 5 4 10 8 6 8 8 9 9 7 8 9 10 9 8 11 10 8 12 12 14 11 4 6 9 12 11 7 14 19 17 15 12 11 13 12 10 14 12 7 10 7 6 13 14 6 4 16 21 17 18 12 8 12 27 30 32 36 40 40
21 20 20 20 20 20 18 16 14 16 18 18 16 14 14 13 9 6 7 6 5 4 4 5 7 8 9 9 4 4 10 10 6 4 6 8 9 8 8 9 9 10 9 8 9 7 9 12 12 9 7 9 9 8 10 15 19 18 13 8 10 11 10 12 8 11 8 5 13 7 5 11 10 8 6 10 18 20 19 6 4 5 15 23 28 31 36 39
22 21 21 20 20 20 18 15 14 16 18 17 15 12 13 11 6 4 5 4 4 4 4 7 8 8 9 7 3 4 8 10 6 3 6 7 7 9 10 10 10 12 8 6 6 6 9 12 11 10 11 10 6 5 12 20 17 12 9 3 6 8 7 12 9 9 7 7 13 3 3 8 6 14 16 12 15 20 23 12 3 4 7 13 23 28 31 35
23 22 22 21 20 20 17 15 14 15 17 16 14 12 11 10 5 3 3 2 2 3 4 7 8 8 9 6 4 6 7 8 5 5 9 8 7 9 9 8 9 10 9 7 8 7 9 12 11 11 10 8 8 10 11 13 10 6 5 3 3 3 5 11 8 8 8 13 14 0 2 8 6 17 25 19 16 18 25 23 11 9 9 10 17 28 30 35
23 23 23 21 21 19 16 14 13 15 16 14 13 12 10 8 4 2 2 1 1 2 3 5 8 9 10 6 3 5 7 7 5 5 8 7 8 9 9 9 9 8 8 10 10 8 8 9 9 9 9 9 9 7 6 4 4 2 2 4 3 1 6 10 8 4 5 14 14 1 2 8 7 15 25 23 16 18 24 29 22 13 14 14 15 22 27 34
23 24 23 22 20 18 16 14 13 15 14 13 14 12 9 6 3 2 2 2 3 2 2 5 7 8 7 5 4 5 6 7 6 5 6 8 9 10 10 10 8 5 6 8 9 11 11 9 9 9 9 8 3 2 4 4 4 2 1 4 5 3 5 8 7 5 6 10 8 0 3 5 6 11 20 23 17 15 17 24 29 19 15 16 19 20 24 31
23 24 23 22 20 18 16 14 14 13 11 13 14 10 9 7 3 1 1 3 5 4 4 5 9 9 4 3 6 6 7 8 10 10 9 9 9 10 9 8 6 4 5 7 9 11 12 10 6 6 5 3 1 4 4 3 4 3 1 3 5 5 4 5 6 6 4 4 4 2 3 6 8 11 20 24 21 17 14 19 30 30 16 14 17 19 22 30
24 23 23 22 19 17 15 13 13 11 9 11 14 11 9 9 3 4 1 4 6 5 4 4 5 6 2 5 8 7 9 13 14 11 8 7 8 9 8 7 7 6 7 8 7 6 7 7 2 1 3 3 1 4 2 4 4 3 3 3 4 4 5 5 5 6 6 3 3 4 4 7 8 9 16 21 18 16 17 19 25 34 22 13 16 17 20 28
24 24 23 21 18 16 13 13 12 12 11 9 13 11 5 10 5 4 2 8 7 3 1 3 3 2 5 11 11 8 12 16 14 8 5 6 5 7 9 9 9 8 7 5 5 3 5 3 1 1 3 4 4 5 7 8 7 6 6 5 5 5 5 6 6 5 5 6 5 4 5 5 8 9 12 19 19 14 17 21 20 29 25 12 14 17 20 27
25 24 23 21 18 14 11 12 12 14 15 11 15 14 8 13 8 2 13 11 2 3 5 7 8 10 12 13 11 10 13 13 12 8 4 4 5 7 10 9 9 6 3 2 4 4 3 2 2 4 6 8 8 8 10 10 9 9 8 6 6 5 5 5 6 5 3 5 7 6 4 5 7 8 9 16 18 12 13 17 16 21 24 15 12 17 21 27
26 24 24 21 17 13 9 9 10 12 15 13 19 20 13 13 7 6 17 11 1 4 8 7 8 13 13 11 11 10 12 11 10 6 2 4 4 4 8 7 4 3 4 6 6 4 1 2 6 9 11 10 10 9 7 8 9 9 7 6 5 4 5 5 5 7 4 3 7 8 6 6 8 7 9 13 11 9 12 12 14 19 24 21 14 15 19 23
26 25 24 21 16 12 7 7 8 9 11 11 16 19 13 10 5 7 11 8 7 4 8 8 8 13 12 10 10 8 9 8 7 4 4 4 1 2 6 6 3 3 5 4 4 4 1 3 9 13 12 8 8 10 8 9 9 8 5 4 5 4 5 5 5 6 6 3 6 7 7 9 9 7 8 10 8 12 17 15 16 21 24 23 15 10 10 13
27 25 24 20 15 11 7 6 7 7 8 8 13 17 14 10 6 7 7 8 9 4 8 9 9 13 11 7 7 7 9 5 6 6 5 5 1 3 6 4 3 5 4 4 4 4 3 6 10 12 10 6 8 10 8 8 6 5 4 4 6 4 4 5 5 6 7 5 6 7 8 9 10 7 6 11 13 14 18 18 18 21 22 23 20 14 10 9
27 25 22 19 14 11 7 5 6 8 7 6 11 15 16 12 6 7 6 4 6 5 6 7 8 10 9 6 7 9 9 6 8 4 7 6 1 1 2 1 3 4 3 5 5 3 4 8 8 7 6 4 6 7 6 5 4 3 5 5 5 5 6 7 5 6 6 5 5 5 7 7 8 8 8 9 10 11 14 15 16 21 23 21 20 17 14 13
27 24 21 18 13 10 7 4 5 7 5 6 12 15 17 14 8 9 5 0 3 4 1 3 7 7 8 7 9 10 7 7 10 6 6 6 5 2 2 1 1 2 5 6 4 4 6 7 11 10 7 6 3 5 6 5 5 4 4 6 8 8 9 9 7 6 4 5 4 2 4 7 5 8 9 7 5 7 10 10 13 20 24 23 22 20 18 14
27 23 19 16 12 10 7 5 5 5 3 8 13 15 17 14 10 8 3 3 2 3 2 1 5 4 9 10 13 9 3 5 8 8 7 6 6 3 1 0 1 2 5 4 2 2 4 7 10 7 7 8 5 4 5 5 5 5 5 6 7 7 8 8 8 5 3 5 4 4 3 6 6 7 9 7 7 9 10 9 12 18 24 26 27 25 22 18
26 22 18 14 11 10 8 6 7 6 6 10 14 15 15 11 8 7 2 4 4 2 3 2 1 6 12 16 16 5 2 6 6 8 10 8 6 3 2 1 0 3 3 3 3 2 5 10 10 8 7 6 5 5 4 4 2 4 6 8 10 9 10 9 7 5 4 5 4 5 4 3 7 9 9 7 9 11 10 9 11 17 22 26 28 27 24 22
24 20 15 12 10 10 9 8 9 10 10 13 15 14 10 6 6 4 2 4 4 3 2 4 6 10 19 22 17 6 4 8 4 5 10 10 6 3 2 3 3 4 3 3 2 5 4 6 8 9 9 5 5 6 5 4 3 5 5 9 11 10 12 10 6 5 2 4 4 4 5 2 7 10 6 4 7 11 11 10 9 14 22 25 26 27 26 24
22 17 13 10 9 10 10 9 11 12 13 14 15 12 7 6 6 2 4 3 2 4 4 7 9 13 23 23 16 15 13 9 4 3 7 9 7 2 1 5 4 2 3 1 2 5 3 8 11 8 6 5 4 5 5 5 4 6 6 9 10 8 7 7 5 3 2 5 5 4 6 3 8 12 7 2 5 9 9 9 7 13 23 26 24 25 26 26
18 13 10 9 10 11 10 10 11 12 14 15 14 10 7 6 3 3 3 0 0 5 8 8 9 14 20 15 10 16 12 8 8 3 3 5 7 5 3 4 1 2 3 2 2 5 8 15 13 5 3 2 2 5 6 6 8 8 6 7 7 5 3 3 3 1 2 5 3 6 8 5 6 10 5 3 5 7 6 8 8 11 19 24 24 25 25 24
14 10 9 10 10 12 13 12 12 13 15 16 14 11 6 3 3 5 1 2 1 6 8 7 8 13 14 6 3 10 7 6 11 8 3 1 2 2 5 3 3 4 4 5 3 5 8 10 6 2 2 1 2 6 8 9 10 7 4 3 3 4 3 2 2 1 3 5 2 3 3 6 8 7 1 2 6 7 7 9 9 10 17 26 27 26 26 25
12 7 8 10 10 11 13 14 14 14 14 16 15 10 2 3 4 2 2 5 3 3 5 5 6 8 9 5 2 7 6 5 10 7 3 2 3 4 6 3 3 5 4 5 5 5 6 5 3 4 3 3 4 6 7 8 6 4 4 3 2 3 2 2 2 1 4 6 2 2 5 2 9 8 4 4 6 7 8 10 12 12 18 27 28 27 29 28
11 6 7 11 11 11 13 16 17 15 16 18 15 6 3 5 3 1 2 3 1 3 4 4 5 5 6 6 5 8 6 5 9 8 4 3 4 5 6 5 4 4 1 3 4 5 5 5 4 5 4 4 7 5 4 5 5 4 4 1 1 1 1 2 2 2 4 4 1 5 6 4 7 6 4 5 6 9 12 16 19 18 20 26 29 30 32 30
11 6 8 11 13 13 15 17 19 17 18 18 10 3 6 4 1 2 2 2 2 3 4 3 5 6 5 4 4 6 4 4 8 8 5 5 4 3 5 6 6 4 1 2 2 3 4 5 5 4 4 8 9 4 3 5 6 7 4 3 2 3 2 3 3 2 3 3 1 3 1 3 3 4 6 8 13 18 21 22 22 23 25 29 30 30 29 29
11 8 9 12 13 14 16 18 18 17 18 15 6 5 6 2 1 1 1 3 2 2 4 4 4 5 5 4 4 6 5 3 6 6 4 4 4 2 2 3 3 3 2 3 2 1 2 5 4 2 7 10 7 4 5 5 5 5 1 3 1 2 3 1 2 2 1 2 2 1 2 3 3 7 11 11 14 20 22 20 17 20 26 29 30 29 26 24
10 9 11 13 14 15 18 18 15 14 15 10 5 5 3 2 1 1 1 2 1 1 4 5 5 3 4 5 4 7 8 3 4 5 4 4 4 3 2 1 2 2 3 1 2 2 2 6 6 6 9 7 3 8 10 5 2 3 3 1 1 2 2 1 1 1 1 2 2 3 4 4 4 8 10 9 10 10 11 11 11 15 20 19 20 20 16 14
10 9 11 15 17 18 19 17 14 11 10 6 5 3 2 2 2 2 1 2 0 1 4 3 4 2 3 4 3 7 9 5 4 4 3 3 3 1 0 2 2 1 3 3 0 1 1 7 8 5 6 5 10 16 11 2 1 2 4 1 2 4 3 2 2 1 2 3 2 2 5 4 1 4 7 8 9 8 8 9 9 13 16 15 13 14 13 14
12 8 9 15 18 18 18 15 11 8 5 4 5 2 2 0 2 2 4 4 1 3 5 2 2 2 2 3 3 7 7 4 4 4 2 2 1 1 1 2 2 2 5 3 2 1 1 5 6 2 3 10 14 12 5 3 6 3 1 2 1 2 1 1 1 2 2 3 3 3 5 4 3 4 5 8 10 9 10 9 8 10 11 10 13 16 16 17
12 6 7 15 17 17 18 14 10 7 4 4 3 2 1 1 4 9 11 7 3 3 3 2 1 1 2 1 2 6 5 4 5 3 2 1 1 2 1 1 1 3 5 3 2 2 1 2 4 1 2 9 8 3 3 6 5 3 2 1 1 2 2 1 1 1 1 2 2 2 2 3 4 4 3 7 11 10 9 9 7 7 9 10 11 16 18 19
11 4 6 14 16 17 18 14 10 8 5 3 2 1 2 2 6 13 16 11 4 2 1 2 1 2 2 2 3 4 2 4 5 2 2 1 0 3 3 1 1 2 2 5 4 1 2 1 5 5 5 6 4 2 2 4 4 3 2 2 2 1 0 2 2 1 1 1 1 3 4 4 4 2 4 9 11 10 8 9 8 7 10 11 11 15 20 21
10 4 6 15 16 17 16 11 9 6 3 2 3 2 2 3 5 10 15 13 7 3 2 1 2 1 2 2 3 3 3 4 3 2 2 2 2 3 3 1 1 2 3 5 3 1 1 1 4 7 7 5 6 5 1 1 1 1 2 3 3 2 2 3 2 2 2 2 2 2 4 5 3 2 6 9 8 7 9 10 8 10 12 10 12 17 20 23
11 3 6 15 15 14 11 6 6 4 3 3 4 3 3 3 3 8 12 13 9 7 7 3 2 2 2 1 2 3 3 2 2 2 2 3 4 2 2 1 3 4 3 2 1 1 2 1 2 6 6 7 12 10 1 3 2 2 3 1 1 3 2 3 3 2 2 2 2 1 2 5 4 4 6 7 7 10 15 13 10 13 13 10 12 18 21 24
12 3 6 13 11 10 8 4 5 4 2 5 6 5 5 4 4 7 9 10 7 5 6 3 2 3 1 2 3 3 3 2 2 3 3 4 5 3 2 1 4 4 3 1 1 1 2 1 2 6 6 6 7 5 2 2 2 0 2 1 1 3 5 6 4 1 1 3 3 2 2 5 5 4 5 7 12 16 19 18 14 15 16 13 13 18 22 25
12 6 8 13 9 9 9 3 3 3 3 6 6 6 7 7 8 7 5 6 6 4 3 2 3 3 2 4 4 3 3 2 2 4 3 3 5 5 2 2 3 1 2 2 2 2 1 0 0 4 6 4 3 3 2 2 2 2 4 3 4 7 9 8 5 2 2 4 6 3 3 5 4 5 7 10 13 13 16 22 22 19 20 21 21 23 24 25
10 5 9 13 12 13 12 5 4 2 2 5 5 4 5 5 8 11 6 4 9 7 3 3 5 5 4 5 5 5 3 2 1 4 3 2 5 6 4 2 1 3 4 5 6 5 1 1 1 2 5 5 4 4 5 5 4 5 6 7 10 13 13 9 3 2 1 2 4 3 4 6 7 8 9 10 11 12 16 25 28 25 26 29 29 29 27 24
7 3 8 12 10 11 12 11 10 5 1 3 3 2 5 2 4 12 9 4 9 10 4 3 6 6 4 5 5 5 3 1 2 3 3 4 3 4 8 7 4 5 5 8 9 5 2 1 3 4 3 4 5 7 9 6 4 7 10 12 13 14 13 9 3 1 4 3 3 3 5 10 12 10 9 10 12 13 15 19 24 28 30 32 32 31 27 21
4 1 4 7 7 7 10 14 15 9 4 3 1 0 4 2 2 7 6 3 7 9 4 2 3 4 4 5 4 4 4 4 5 4 4 5 3 5 12 10 6 7 7 10 9 4 3 2 4 5 7 8 7 10 12 8 3 5 10 13 13 13 12 8 6 6 8 4 2 6 10 12 12 9 9 11 13 12 12 16 22 27 30 32 32 32 28 22
5 1 2 5 4 3 5 10 13 11 7 5 3 2 4 4 3 4 3 3 7 6 3 3 4 3 4 4 3 3 5 5 5 5 3 4 3 5 8 6 5 7 8 7 5 4 3 3 4 3 8 10 7 9 10 6 3 2 7 11 11 12 11 7 6 8 8 5 5 11 14 13 10 9 11 12 13 13 16 21 26 28 28 30 30 30 29 24
6 2 2 5 4 4 4 10 13 9 5 4 4 3 3 4 4 3 2 2 5 3 1 1 4 5 5 4 2 2 4 4 5 5 2 5 6 4 3 5 3 5 7 4 2 2 2 2 4 3 9 14 11 7 4 3 3 1 6 10 9 9 8 6 5 7 8 6 8 12 13 11 7 7 11 15 18 19 22 25 26 26 26 27 27 27 28 28
6 3 4 7 6 5 7 10 10 5 3 4 3 2 2 3 4 4 3 2 2 3 2 2 6 7 5 5 2 3 6 6 6 7 5 5 6 3 1 3 2 2 2 2 1 1 2 2 2 0 5 12 12 5 2 2 3 1 7 11 11 10 8 6 5 6 9 9 11 13 11 9 7 8 13 19 22 20 20 22 24 25 26 26 27 28 28 29
4 3 5 5 4 4 7 9 7 2 2 4 3 2 2 2 4 4 4 3 3 3 4 5 7 7 4 5 5 8 13 12 11 15 15 12 12 10 6 6 5 1 1 3 2 2 2 2 3 2 3 9 8 7 9 5 2 2 7 10 10 10 8 6 5 4 6 9 12 13 10 8 10 12 15 19 19 17 16 19 22 26 28 26 26 29 30 29
3 1 3 3 2 3 5 7 6 2 2 3 4 3 2 4 8 7 4 3 4 8 11 9 8 6 4 7 9 14 21 21 20 24 25 24 24 22 20 18 14 7 4 2 1 2 3 1 3 2 2 7 8 9 10 5 2 2 5 6 5 7 7 7 6 5 6 7 7 7 8 10 13 13 14 16 16 15 17 21 23 26 30 30 28 31 34 33
Wind_Direction
8 5 4 1 359 358 357 354 351 350 349 348 346 346 346 344 343 343 343 340 335 331 331 330 326 327 331 327 321 323 334 344 279 264 276 324 345 6 3 344 330 320 315 308 287 247 222 247 28 23 1 305 253 250 243 238 238 247 235 217 253 244 226 227 219 237 266 292 273 256 251 244 258 260 265 265 263 268 273 281 233 200 205 203 196 183 172 171
7 4 3 0 358 356 354 352 351 350 348 346 345 344 343 343 342 340 339 336 331 328 327 327 326 330 334 330 328 340 359 20 142 256 336 1 4 11 2 349 340 334 337 305 223 253 305 337 13 3 354 328 273 259 246 232 222 217 175 236 247 226 267 284 269 267 272 275 283 287 281 272 266 273 285 282 287 292 306 324 247 202 190 187 186 173 169 171
6 4 2 1 358 356 353 351 351 349 348 347 345 344 343 342 342 340 337 334 331 328 328 328 329 335 335 331 339 356 19 49 78 73 43 30 15 357 337 341 350 0 8 258 198 8 339 342 357 341 336 312 275 257 242 225 215 210 207 249 256 39 312 291 286 292 290 292 291 292 292 288 282 280 283 277 293 298 300 340 192 171 172 177 170 163 165 167
7 5 3 1 358 356 353 351 351 350 350 349 347 347 345 343 342 341 338 335 333 331 331 331 333 340 336 335 350 6 29 60 69 61 48 31 9 350 333 344 358 12 27 137 185 5 336 330 333 328 321 296 278 263 238 223 230 215 197 229 249 267 288 279 283 290 290 294 290 290 297 296 298 291 279 274 283 287 289 272 177 179 186 176 163 163 170 170
6 5 3 1 359 357 354 353 353 352 352 351 351 348 346 345 343 342 341 339 337 334 336 335 336 342 337 343 8 14 24 55 48 43 22 358 353 348 2 12 351 7 39 80 27 357 342 342 337 324 301 278 287 288 252 232 226 233 248 255 257 252 263 270 276 280 281 286 284 285 286 289 302 299 288 280 264 254 303 322 216 206 198 186 174 170 175 177
5 4 3 1 360 358 355 355 354 354 354 353 352 348 346 346 344 345 344 343 342 342 345 341 342 349 343 3 32 20 27 63 9 15 351 345 350 356 67 64 21 19 78 41 4 357 355 349 342 321 273 265 295 283 285 281 257 247 278 273 263 257 254 266 268 266 271 275 272 274 277 283 298 295 296 290 273 283 301 321 273 216 215 199 181 174 174 176
3 2 2 1 360 358 356 354 355 355 355 353 351 348 347 347 348 348 347 348 347 348 353 351 357 6 4 26 27 21 42 55 12 1 339 349 357 23 89 68 50 47 8 8 354 359 350 338 340 337 324 304 314 304 301 309 313 282 265 274 271 264 256 266 271 270 270 268 272 278 282 289 278 286 303 307 297 297 297 308 269 203 208 201 184 181 182 183
1 1 2 1 359 358 355 354 354 354 354 352 350 348 348 350 351 351 351 351 349 352 0 5 24 36 47 34 25 44 57 31 9 350 339 1 17 69 87 55 44 29 1 0 348 353 340 328 342 348 359 9 324 316 321 324 321 302 267 293 299 288 280 286 297 296 288 277 281 288 282 277 275 293 303 306 317 322 314 313 277 206 194 195 192 189 189 192
0 0 1 360 359 358 355 354 353 352 351 350 349 349 349 351 353 353 354 353 352 358 8 25 49 49 61 40 35 62 32 1 351 340 341 7 30 68 66 41 30 5 352 349 334 340 337 335 346 339 306 326 334 321 334 347 317 321 311 307 306 298 304 312 314 309 304 295 287 289 280 282 305 315 296 292 315 337 334 344 316 225 196 192 190 186 187 194
0 0 0 359 359 357 354 353 350 350 350 348 349 349 350 353 354 354 354 354 358 10 26 49 55 42 45 27 30 42 8 351 338 342 351 17 29 36 35 27 17 354 333 323 316 327 338 344 347 341 313 322 336 319 327 342 320 325 320 315 307 295 305 306 299 302 306 301 290 285 290 299 306 308 277 289 304 321 323 353 348 224 197 193 189 184 185 191
1 0 359 359 358 356 354 351 349 349 349 348 348 350 351 352 354 356 356 358 6 24 38 48 32 20 13 1 4 20 7 356 343 359 13 22 20 16 13 6 359 347 317 297 292 313 339 342 341 347 346 331 330 318 319 324 327 326 324 322 315 313 310 299 288 296 306 300 291 296 298 305 304 277 223 284 299 312 312 350 14 211 195 194 192 187 188 191
2 360 358 358 358 356 353 350 349 349 348 347 347 352 353 351 354 358 358 6 23 37 35 24 11 2 358 350 335 359 3 355 355 30 20 2 358 357 352 339 325 325 326 304 289 310 347 346 342 347 341 333 329 325 321 320 325 321 322 326 316 336 322 297 288 288 298 282 289 307 311 301 292 271 252 280 295 305 306 327 88 209 206 201 196 192 194 196
2 0 359 358 358 356 353 350 350 350 348 348 348 351 354 352 356 5 5 21 43 43 30 9 357 347 350 347 331 352 349 342 348 44 8 344 341 347 336 324 309 302 317 347 337 340 350 340 334 332 326 325 314 309 311 314 322 317 322 343 317 344 317 293 299 299 306 281 283 295 281 282 274 283 282 279 283 291 297 291 179 180 221 213 202 201 199 197
2 1 359 359 359 357 354 351 351 350 349 350 350 349 353 355 0 20 17 35 59 43 29 6 352 344 344 343 350 352 335 321 326 8 1 334 318 339 336 329 320 297 288 312 329 332 337 328 318 314 311 305 300 309 314 315 321 316 327 350 330 337 282 289 304 318 320 292 290 101 213 273 269 283 285 280 267 267 280 279 253 204 233 251 216 212 209 200
2 360 358 359 359 358 356 351 350 351 350 351 349 344 349 3 16 23 14 26 57 40 19 350 343 345 341 343 8 350 323 306 316 355 2 341 312 318 320 313 316 308 284 289 304 302 310 318 308 301 297 299 305 318 333 329 318 328 349 323 321 217 274 299 303 290 272 284 298 35 230 286 271 275 287 292 269 248 260 271 269 232 222 250 234 219 219 211
2 359 359 359 359 0 356 351 351 352 351 349 348 345 345 1 14 15 5 335 338 352 350 327 330 341 341 346 7 360 334 323 337 338 341 344 322 315 322 320 318 310 280 278 294 295 287 284 288 288 288 298 320 36 14 352 326 343 127 270 283 256 277 307 303 268 245 275 304 340 212 283 282 288 305 313 299 265 254 268 277 264 221 231 237 221 221 220
0 359 359 358 0 1 358 355 352 355 354 348 350 348 341 344 321 284 58 333 317 306 309 298 309 319 321 357 358 0 349 337 336 324 318 325 311 313 330 340 347 326 292 282 282 288 275 256 251 271 280 298 56 78 38 342 303 306 280 245 269 268 263 286 298 306 303 270 290 295 234 265 274 295 312 316 314 302 278 267 273 273 247 212 227 215 213 218
359 358 358 359 360 0 4 4 358 360 356 353 360 357 353 3 331 216 144 342 314 311 306 277 306 324 304 330 340 345 340 336 333 323 315 314 299 304 318 330 342 324 315 312 294 281 250 239 206 278 327 339 40 103 111 251 229 249 265 246 272 282 266 266 273 306 338 319 272 278 255 273 282 291 306 310 313 309 298 285 273 273 263 210 217 218 210 215
358 357 358 359 359 2 12 15 14 8 354 354 3 3 20 21 19 196 327 332 304 309 295 255 288 311 269 296 311 318 325 331 335 330 323 326 312 312 318 308 301 296 305 328 319 279 205 214 20 338 299 275 234 168 192 234 227 238 258 252 268 278 263 258 255 272 332 334 298 265 239 259 288 290 299 308 307 300 296 299 289 280 275 241 226 228 213 213
356 356 357 358 358 2 17 26 30 17 3 359 3 16 38 14 16 299 339 347 287 260 258 252 264 274 278 292 303 309 322 338 344 335 313 314 313 329 338 315 290 292 291 269 290 290 182 174 271 241 241 242 241 217 211 235 245 252 263 264 265 267 264 268 273 282 336 335 294 281 261 237 268 282 282 297 304 302 295 298 299 290 287 279 252 239 219 213
355 354 355 357 357 357 14 32 37 25 12 6 11 29 39 14 16 322 336 351 6 279 259 246 258 272 277 294 305 308 325 347 357 349 225 269 305 344 355 340 320 328 281 265 279 300 118 193 250 239 237 239 249 248 232 246 252 248 247 247 256 262 263 258 265 290 324 320 288 291 294 262 256 263 274 288 297 291 284 281 282 283 284 286 276 253 232 216
354 353 354 356 355 353 4 23 31 26 9 6 20 33 36 15 360 311 321 316 313 290 247 250 256 269 277 287 288 297 324 334 348 345 202 231 339 36 357 4 23 328 293 307 327 333 17 230 245 244 246 245 262 272 262 262 262 258 261 261 267 265 269 272 272 297 317 302 281 288 295 286 267 247 255 268 262 270 278 276 280 281 275 275 269 252 243 229
352 353 353 354 355 354 3 16 14 8 359 6 24 26 17 358 318 300 305 287 301 283 238 249 250 266 278 272 255 285 326 316 314 320 213 202 55 26 5 26 348 308 315 352 344 340 324 257 253 254 256 252 262 270 262 267 273 259 268 279 274 269 272 284 286 290 287 266 268 283 290 288 281 273 253 251 249 259 273 278 286 286 276 272 269 256 253 258
350 352 352 352 356 358 13 26 5 2 2 9 15 10 359 346 314 316 323 268 290 286 244 247 249 267 275 260 253 280 308 291 291 293 188 203 260 21 25 40 326 321 319 322 313 307 271 267 300 310 288 267 261 280 283 285 298 263 245 245 254 265 255 253 264 279 284 284 284 292 297 287 282 288 278 266 262 260 269 278 286 286 284 284 279 271 264 267
348 351 351 351 357 4 19 47 22 16 17 8 0 353 351 345 327 328 336 196 303 299 281 244 241 278 300 292 284 281 285 281 280 253 199 227 231 195 41 42 331 320 300 309 324 311 269 288 340 346 325 330 331 319 317 314 325 308 262 237 236 248 252 254 271 286 304 306 287 251 280 281 291 289 277 286 300 284 285 292 289 286 288 290 287 287 286 281
347 350 350 350 358 6 21 44 30 24 2 353 351 343 343 339 327 329 341 71 1 291 1 338 228 314 350 338 318 303 280 298 284 251 231 230 216 188 37 337 185 261 290 310 335 295 276 314 341 337 322 336 346 324 319 347 347 307 282 270 264 270 272 265 269 274 261 271 257 160 200 274 299 286 265 278 295 286 290 292 286 282 283 285 285 288 291 289
347 351 349 350 359 7 21 31 19 18 358 347 344 337 334 327 321 323 337 60 32 310 333 349 279 344 354 345 337 331 237 307 296 242 231 218 201 168 181 271 213 251 280 7 4 293 296 321 330 328 325 328 328 310 308 0 342 278 299 314 315 315 299 278 261 256 243 267 268 146 149 260 283 270 246 245 271 277 281 278 280 281 277 278 281 284 288 290
348 351 351 352 3 4 4 6 2 6 359 346 342 335 327 318 313 319 82 75 12 345 341 337 342 342 343 346 351 4 312 312 312 223 220 209 199 152 184 227 191 244 285 58 331 284 287 315 315 318 320 308 302 298 303 336 292 267 298 304 303 303 298 294 275 266 274 302 298 148 147 244 270 271 253 209 252 269 275 274 275 277 275 274 277 280 283 287
350 354 359 4 10 5 358 353 352 358 356 351 351 342 320 308 309 342 84 82 330 345 350 344 347 339 344 353 355 354 349 336 337 213 204 201 209 207 249 241 208 241 323 81 262 280 291 296 293 292 293 280 278 291 313 324 281 271 277 278 283 284 295 304 288 298 332 300 286 162 159 220 266 269 267 232 255 264 274 277 268 270 275 277 278 282 284 285
355 4 15 19 12 7 6 358 351 358 2 2 360 340 309 305 332 63 51 49 258 339 339 348 349 340 350 2 344 344 353 334 344 3 204 195 201 226 284 275 249 63 3 2 278 282 298 299 294 277 246 252 284 313 324 314 293 292 283 275 286 291 294 293 277 336 327 289 266 175 176 183 260 272 251 208 238 243 256 270 270 270 277 282 285 290 291 289
359 14 24 24 16 12 13 9 2 2 6 10 1 334 313 324 44 90 48 315 348 337 343 355 348 342 350 7 315 331 336 315 352 20 358 12 159 294 351 0 11 32 11 354 325 305 314 310 308 303 290 42 3 328 332 324 314 318 317 309 313 311 331 344 335 94 246 268 211 184 201 190 234 270 230 206 239 237 242 252 265 275 278 283 286 290 293 297
359 13 17 14 16 15 11 13 12 5 6 8 354 332 339 47 29 86 296 335 350 321 341 345 336 336 334 348 352 329 335 337 350 3 349 23 80 31 30 54 9 13 358 335 323 332 322 288 311 336 314 38 19 335 334 329 331 356 355 0 348 314 351 355 323 216 238 250 193 41 10 225 239 270 298 287 262 250 258 258 259 264 270 278 282 285 289 293
353 352 2 4 10 10 6 10 10 6 9 4 347 332 85 76 32 32 325 342 286 279 318 317 313 331 341 360 4 336 345 358 349 350 352 32 88 68 43 41 48 62 358 317 325 344 320 273 324 348 319 6 8 342 320 314 326 328 309 295 220 252 319 256 245 258 258 246 190 33 12 293 267 279 283 292 285 277 283 281 279 278 275 279 283 285 287 289
357 356 359 1 5 1 359 4 4 6 11 3 349 24 66 67 65 36 11 305 249 300 323 303 314 345 10 9 337 341 356 335 341 352 352 14 57 69 33 19 37 76 57 358 1 348 321 291 324 350 324 338 342 315 279 293 301 288 240 175 191 187 200 248 220 240 274 264 303 33 20 244 234 265 293 310 307 299 291 285 289 295 293 292 288 284 285 286
1 9 3 0 0 357 358 0 359 6 6 358 7 65 62 73 288 358 324 269 278 330 320 329 358 12 7 342 314 353 14 321 329 349 349 14 42 60 49 359 1 44 49 20 349 276 260 270 280 320 307 308 311 304 315 323 301 282 245 122 198 202 181 230 215 193 256 302 276 199 224 241 244 284 299 304 301 299 296 296 303 307 308 303 288 278 280 285
359 9 10 5 0 0 2 356 353 1 357 356 54 69 78 154 233 214 212 276 290 338 334 351 17 33 352 334 320 345 357 338 326 347 347 15 46 56 44 303 302 35 75 91 318 339 317 282 287 317 302 274 281 319 315 305 254 287 340 106 148 18 83 137 258 176 140 270 250 194 248 289 312 297 294 289 289 296 302 314 321 321 333 332 302 290 300 311
358 9 18 12 7 6 2 351 349 353 346 5 84 80 110 168 238 214 284 321 221 69 59 33 351 21 359 330 320 333 341 343 349 355 342 2 34 51 83 234 244 76 115 127 347 339 287 290 292 306 298 296 332 325 305 256 171 300 308 189 119 26 52 117 280 239 183 248 256 217 244 261 294 286 296 300 304 320 321 322 330 334 353 8 351 343 355 354
355 7 21 13 8 6 358 348 347 341 336 38 72 65 95 110 312 40 13 352 5 49 75 111 286 22 14 320 306 320 330 343 350 350 334 335 350 338 179 211 279 203 174 134 53 147 162 304 292 239 279 317 334 333 319 21 45 57 198 145 104 327 311 151 230 233 216 252 276 246 242 243 213 240 295 305 301 310 311 311 327 334 341 353 353 353 356 352
349 6 31 9 1 359 357 354 357 6 30 55 47 21 78 75 38 44 32 15 22 55 71 196 240 11 346 312 289 308 324 338 332 330 329 341 233 293 253 205 295 218 191 134 103 170 129 319 284 244 349 326 329 356 351 341 5 58 110 89 335 259 224 190 201 217 209 226 283 282 257 247 221 231 297 299 294 296 300 305 312 316 317 325 339 345 346 345
353 25 35 1 353 352 358 10 23 37 66 47 6 4 20 50 41 35 31 21 11 69 141 238 321 10 314 321 304 292 311 331 327 306 284 325 324 298 279 221 215 191 131 78 88 130 85 151 271 300 341 337 321 21 23 323 330 5 5 315 297 252 260 277 229 202 210 187 244 275 278 261 229 247 298 288 290 295 297 299 299 305 311 315 329 339 340 338
11 36 18 3 359 352 359 28 34 32 78 27 335 335 17 63 39 21 25 24 22 39 28 326 35 14 266 308 303 289 316 320 313 296 292 331 339 299 268 244 119 120 78 56 59 119 105 168 260 297 323 331 295 297 5 135 333 339 278 287 293 271 274 276 241 205 216 205 192 239 275 272 242 250 275 274 277 283 289 292 297 306 301 299 319 329 332 333
18 41 17 10 4 352 4 44 21 12 87 25 330 319 3 69 44 15 20 23 30 33 15 12 43 340 264 280 298 296 323 294 269 320 333 324 326 301 251 194 84 78 75 53 321 204 153 152 247 280 283 271 278 292 313 150 171 223 240 238 265 269 267 259 253 217 197 218 206 189 270 273 260 251 253 264 282 290 294 294 290 295 292 282 305 319 323 326
8 358 10 9 357 2 38 65 1 13 51 357 348 346 8 49 44 24 27 26 29 24 5 353 16 8 333 317 315 299 315 294 293 2 353 322 334 329 246 126 81 67 77 86 289 212 151 107 288 284 277 259 277 316 38 155 152 196 266 213 176 267 270 258 255 244 192 216 197 173 261 266 267 274 278 296 306 302 301 302 295 294 299 295 297 311 318 321
2 354 16 29 36 42 55 74 357 1 322 352 5 358 20 62 55 32 34 37 31 12 347 331 349 358 324 322 322 303 336 357 340 358 352 308 326 320 309 67 69 103 170 193 188 157 156 103 280 304 315 318 336 6 353 314 345 323 300 319 335 320 304 283 257 229 233 212 191 188 259 266 279 314 317 316 317 314 313 317 316 308 305 307 307 310 314 316
5 1 5 26 54 62 57 65 50 17 306 360 2 342 18 62 51 35 37 50 34 19 342 308 319 325 331 359 352 330 4 83 320 334 335 302 307 304 317 17 147 198 206 201 166 147 161 149 157 304 330 332 334 332 310 310 325 312 315 335 341 341 331 310 259 201 252 222 200 207 259 281 302 317 319 327 331 329 326 324 325 320 311 308 308 308 307 308
22 15 345 355 23 49 44 34 32 28 299 0 342 337 30 30 21 25 26 38 25 9 341 304 326 341 359 25 11 327 326 32 303 305 303 293 282 296 323 328 266 219 193 174 162 143 93 134 207 218 243 279 291 287 288 301 317 312 327 341 345 345 338 333 0 352 312 287 230 246 285 294 302 310 320 335 334 325 322 320 321 322 317 309 304 302 299 296
49 43 359 352 346 8 20 15 14 6 329 357 11 3 30 14 330 9 15 21 5 354 339 316 3 27 5 3 7 306 293 325 313 284 275 276 254 290 313 310 263 219 169 159 171 145 70 308 246 219 234 249 254 266 284 307 309 304 333 346 345 346 347 6 38 359 318 307 303 321 319 309 304 310 320 327 324 318 315 313 313 316 319 317 310 299 291 285
52 62 57 26 335 319 3 347 340 340 339 6 49 62 22 22 6 358 359 351 348 355 13 338 342 16 352 349 7 297 306 331 302 278 272 275 286 312 313 305 246 204 160 148 191 155 94 279 249 256 282 281 269 264 281 302 261 265 350 350 345 350 353 4 26 6 345 334 321 319 317 311 309 314 318 317 316 311 305 304 307 309 315 326 324 307 293 287
47 56 3 358 326 266 301 315 314 324 352 17 37 38 29 25 0 331 295 327 335 335 23 290 300 322 327 332 8 296 300 311 291 282 277 288 299 307 302 309 280 190 149 126 232 181 106 259 232 254 298 304 304 279 264 278 244 209 1 350 351 355 348 339 344 356 354 334 317 318 312 306 306 306 310 312 309 305 303 302 306 311 315 322 325 316 306 302
47 39 335 337 327 299 320 329 322 325 14 29 31 11 22 29 351 322 294 295 299 297 313 288 290 302 299 293 299 258 257 256 256 260 266 300 309 304 257 261 243 202 160 149 203 184 166 257 270 259 304 307 308 307 314 277 206 110 355 350 353 350 347 346 325 336 355 343 327 325 320 309 307 306 308 311 310 308 307 308 309 312 314 313 313 314 313 310
52 20 338 339 330 328 346 342 335 351 25 23 23 343 352 359 339 334 307 275 224 247 297 299 295 302 300 288 279 267 271 266 251 254 258 261 268 271 267 235 214 250 266 198 173 152 169 271 321 28 325 299 303 329 333 323 151 98 348 346 347 343 343 336 307 313 344 332 322 330 336 319 309 309 308 309 312 312 309 310 312 310 308 307 305 307 309 308
70 17 348 0 319 324 356 341 335 24 19 353 3 350 338 339 344 356 346 294 288 307 310 298 285 295 305 290 280 286 291 286 276 274 273 268 265 263 259 249 241 242 232 204 198 181 173 253 303 12 332 289 301 325 325 326 70 35 335 326 324 329 328 322 313 299 297 304 319 325 317 304 300 302 307 310 314 314 307 307 309 306 303 304 304 305 308 307
Height
1542 1540 1539 1537 1536 1534 1533 1532 1530 1529 1528 1527 1525 1524 1523 1522 1520 1519 1518 1516 1515 1513 1512 1510 1509 1508 1507 1507 1506 1505 1506 1506 1506 1506 1506 1507 1507 1506 1506 1506 1505 1505 1504 1504 1504 1504 1504 1505 1505 1505 1504 1504 1505 1504 1504 1505 1505 1507 1507 1510 1510 1507 1507 1503 1501 1500 1499 1497 1495 1493 1492 1493 1493 1491 1490 1489 1488 1486 1486 1487 1488 1488 1486 1486 1489 1491 1492 1493
1542 1540 1539 1537 1536 1534 1533 1531 1530 1529 1527 1526 1525 1524 1523 1522 1520 1519 1517 1516 1514 1512 1511 1510 1509 1508 1507 1506 1506 1505 1505 1505 1506 1506 1507 1507 1507 1506 1506 1506 1506 1505 1504 1504 1504 1504 1504 1505 1505 1504 1504 1504 1504 1503 1503 1503 1503 1504 1505 1507 1506 1504 1503 1500 1498 1497 1496 1497 1495 1492 1491 1492 1492 1491 1490 1490 1488 1486 1487 1486 1485 1486 1486 1486 1489 1491 1492 1489
1542 1541 1539 1537 1536 1534 1533 1531 1530 1528 1527 1526 1525 1524 1522 1521 1520 1518 1517 1515 1513 1511 1510 1509 1508 1508 1507 1506 1506 1505 1505 1505 1505 1506 1507 1507 1507 1506 1506 1506 1506 1505 1504 1504 1505 1505 1505 1504 1504 1504 1503 1504 1503 1503 1503 1502 1502 1502 1504 1505 1503 1501 1500 1498 1497 1497 1496 1496 1494 1493 1490 1488 1489 1491 1490 1490 1488 1486 1487 1488 1487 1488 1488 1488 1488 1492 1497 1493
1542 1541 1539 1537 1536 1534 1532 1531 1530 1528 1527 1526 1525 1523 1522 1521 1519 1518 1516 1514 1512 1511 1510 1509 1508 1508 1507 1506 1506 1506 1505 1505 1506 1507 1507 1507 1507 1506 1506 1506 1505 1505 1505 1505 1505 1505 1505 1504 1504 1504 1504 1503 1502 1502 1502 1502 1502 1500 1500 1502 1500 1500 1499 1497 1496 1496 1495 1495 1494 1493 1491 1488 1486 1488 1489 1488 1489 1487 1485 1487 1487 1487 1489 1490 1488 1490 1500 1500
1542 1541 1539 1537 1535 1534 1532 1531 1529 1528 1527 1525 1524 1523 1522 1520 1519 1517 1515 1514 1512 1511 1510 1509 1508 1508 1507 1506 1506 1506 1505 1507 1508 1507 1507 1507 1506 1506 1505 1505 1505 1505 1505 1505 1505 1505 1505 1504 1504 1504 1504 1503 1501 1502 1501 1500 1501 1499 1498 1498 1498 1498 1497 1495 1495 1495 1493 1493 1492 1492 1492 1490 1486 1484 1486 1487 1488 1486 1484 1486 1485 1484 1485 1489 1489 1487 1493 1496
1542 1541 1539 1537 1535 1533 1532 1530 1529 1528 1526 1525 1524 1523 1521 1520 1518 1516 1515 1513 1511 1510 1509 1509 1508 1508 1507 1507 1507 1506 1506 1508 1508 1507 1507 1507 1506 1505 1505 1505 1505 1505 1505 1505 1505 1505 1504 1504 1503 1503 1503 1502 1501 1501 1500 1499 1500 1500 1498 1497 1496 1496 1495 1493 1493 1492 1492 1491 1490 1490 1489 1490 1489 1483 1482 1486 1486 1484 1484 1485 1485 1483 1482 1484 1487 1488 1489 1490
1542 1541 1539 1537 1535 1533 1531 1530 1529 1527 1526 1525 1524 1522 1521 1519 1518 1516 1514 1513 1511 1510 1509 1508 1508 1508 1507 1507 1508 1507 1507 1508 1508 1507 1507 1507 1505 1505 1505 1505 1505 1505 1505 1505 1505 1505 1504 1503 1504 1503 1503 1503 1502 1501 1500 1499 1498 1499 1498 1496 1495 1495 1493 1492 1491 1491 1491 1490 1488 1489 1488 1488 1490 1485 1481 1483 1484 1483 1484 1485 1485 1483 1483 1483 1485 1489 1490 1490
1542 1540 1539 1537 1535 1533 1531 1530 1528 1527 1526 1524 1523 1522 1520 1519 1517 1516 1514 1513 1511 1510 1509 1508 1508 1508 1508 1508 1508 1507 1508 1508 1508 1507 1507 1507 1506 1505 1505 1506 1506 1506 1505 1505 1505 1505 1504 1504 1504 1503 1503 1503 1503 1501 1500 1499 1497 1497 1497 1495 1494 1494 1492 1492 1491 1490 1489 1489 1488 1487 1488 1486 1487 1486 1481 1480 1482 1482 1483 1483 1484 1483 1484 1484 1481 1482 1486 1490
1542 1540 1538 1537 1535 1533 1531 1529 1528 1527 1525 1524 1522 1521 1519 1518 1517 1515 1514 1513 1512 1511 1510 1509 1509 1509 1509 1509 1508 1508 1508 1508 1508 1507 1507 1507 1506 1506 1506 1506 1506 1505 1505 1505 1505 1505 1505 1504 1504 1503 1503 1502 1502 1501 1500 1500 1499 1497 1497 1495 1494 1492 1491 1490 1489 1489 1488 1487 1487 1486 1485 1484 1484 1484 1480 1476 1479 1481 1482 1482 1482 1481 1482 1483 1479 1476 1480 1488
1542 1540 1538 1536 1534 1532 1531 1529 1527 1526 1524 1523 1521 1520 1518 1517 1516 1515 1514 1513 1512 1511 1510 1510 1509 1509 1509 1509 1509 1509 1508 1508 1507 1507 1507 1507 1507 1506 1506 1506 1505 1505 1505 1505 1505 1505 1505 1505 1504 1503 1502 1501 1501 1500 1499 1500 1499 1497 1495 1494 1492 1491 1489 1489 1487 1487 1487 1485 1485 1484 1483 1481 1480 1482 1479 1475 1477 1480 1481 1482 1482 1479 1479 1482 1481 1478 1479 1484
1541 1540 1538 1536 1534 1532 1530 1528 1527 1525 1524 1522 1520 1519 1518 1517 1516 1515 1514 1513 1512 1511 1511 1510 1510 1510 1510 1509 1509 1509 1508 1508 1507 1507 1507 1507 1507 1506 1506 1505 1505 1506 1505 1505 1504 1505 1505 1505 1504 1503 1502 1502 1501 1500 1498 1498 1498 1496 1494 1492 1490 1489 1487 1486 1485 1484 1484 1483 1482 1481 1480 1478 1477 1478 1477 1475 1475 1478 1481 1482 1483 1481 1480 1482 1483 1482 1481 1482
1541 1539 1537 1536 1534 1532 1530 1528 1526 1525 1523 1522 1520 1519 1517 1516 1515 1514 1514 1513 1512 1512 1511 1511 1511 1510 1510 1509 1509 1509 1508 1508 1507 1507 1507 1506 1507 1506 1506 1506 1506 1506 1506 1505 1504 1504 1505 1504 1504 1504 1503 1503 1502 1500 1498 1497 1497 1495 1494 1493 1489 1487 1485 1482 1482 1482 1482 1481 1479 1480 1480 1478 1475 1473 1474 1476 1475 1475 1478 1482 1484 1483 1483 1483 1482 1482 1480 1479
1541 1539 1537 1535 1533 1531 1529 1527 1526 1525 1523 1521 1519 1518 1517 1516 1515 1514 1514 1513 1513 1513 1512 1511 1511 1510 1510 1509 1509 1509 1508 1508 1508 1507 1507 1507 1506 1506 1506 1506 1505 1506 1506 1505 1505 1504 1504 1504 1504 1504 1503 1503 1502 1501 1499 1496 1497 1495 1493 1494 1492 1491 1487 1480 1480 1480 1480 1479 1477 1480 1486 1482 1475 1472 1471 1475 1476 1473 1474 1478 1483 1484 1484 1484 1484 1483 1481 1478
1540 1538 1537 1535 1533 1531 1529 1527 1526 1524 1522 1520 1519 1518 1517 1516 1515 1514 1514 1513 1513 1513 1513 1512 1511 1510 1510 1509 1508 1508 1508 1508 1508 1507 1506 1506 1506 1505 1506 1505 1505 1505 1505 1505 1505 1504 1504 1504 1504 1503 1503 1503 1502 1501 1500 1498 1497 1495 1495 1494 1495 1498 1490 1479 1480 1481 1479 1477 1474 1480 1488 1484 1475 1471 1470 1472 1474 1473 1470 1471 1478 1482 1482 1483 1483 1483 1482 1479
1540 1538 1536 1534 1533 1531 1528 1527 1526 1524 1522 1520 1519 1517 1516 1516 1515 1515 1514 1514 1514 1514 1513 1512 1511 1511 1510 1508 1508 1508 1507 1507 1508 1507 1507 1506 1505 1505 1505 1505 1504 1504 1505 1505 1504 1504 1504 1504 1503 1502 1502 1502 1501 1502 1502 1501 1498 1496 1499 1499 1498 1500 1493 1481 1480 1481 1480 1476 1474 1479 1486 1482 1475 1471 1470 1471 1472 1472 1469 1465 1469 1475 1478 1479 1480 1481 1481 1479
1540 1538 1536 1534 1532 1530 1528 1527 1525 1524 1522 1520 1518 1517 1516 1516 1515 1515 1514 1514 1514 1514 1514 1513 1512 1511 1510 1509 1508 1508 1507 1507 1507 1507 1506 1506 1505 1505 1504 1503 1503 1504 1504 1504 1504 1504 1504 1504 1503 1502 1501 1501 1502 1503 1504 1505 1502 1498 1501 1503 1499 1499 1496 1488 1480 1478 1480 1477 1476 1479 1483 1481 1475 1471 1470 1470 1469 1469 1469 1465 1463 1467 1473 1474 1475 1476 1478 1478
1540 1538 1536 1534 1532 1530 1528 1527 1525 1523 1521 1520 1518 1517 1516 1515 1515 1514 1514 1514 1514 1514 1514 1513 1512 1512 1510 1509 1508 1507 1507 1507 1507 1506 1506 1506 1505 1504 1504 1503 1503 1503 1503 1503 1503 1502 1502 1503 1503 1502 1501 1502 1502 1504 1509 1511 1508 1502 1501 1502 1499 1497 1498 1493 1483 1478 1479 1480 1479 1478 1480 1480 1475 1472 1470 1468 1467 1466 1466 1466 1463 1462 1467 1470 1470 1472 1473 1475
1540 1537 1535 1534 1532 1530 1528 1527 1525 1523 1521 1520 1518 1517 1515 1514 1514 1513 1513 1514 1513 1513 1513 1513 1512 1513 1511 1509 1508 1508 1507 1507 1506 1505 1506 1505 1505 1504 1504 1503 1503 1503 1502 1502 1502 1501 1502 1501 1502 1503 1502 1503 1503 1506 1512 1510 1504 1502 1501 1502 1500 1497 1497 1495 1488 1481 1479 1480 1481 1480 1479 1478 1475 1472 1470 1467 1467 1466 1465 1466 1464 1461 1464 1467 1468 1469 1471 1472
1539 1537 1535 1533 1531 1530 1528 1527 1525 1523 1521 1520 1518 1517 1515 1514 1513 1513 1513 1513 1512 1512 1513 1513 1513 1514 1513 1509 1508 1508 1507 1506 1505 1505 1505 1504 1504 1504 1503 1503 1503 1502 1503 1503 1502 1501 1501 1502 1503 1505 1504 1503 1501 1503 1505 1501 1499 1499 1498 1499 1499 1497 1495 1492 1487 1482 1480 1480 1480 1480 1480 1478 1475 1472 1469 1467 1466 1466 1465 1463 1463 1461 1462 1465 1466 1466 1468 1470
1539 1537 1535 1533 1531 1530 1528 1527 1525 1524 1521 1519 1518 1516 1514 1515 1514 1513 1512 1511 1511 1512 1512 1512 1512 1512 1511 1508 1507 1508 1506 1506 1505 1504 1504 1504 1504 1504 1503 1503 1502 1503 1503 1503 1502 1501 1501 1504 1506 1504 1502 1499 1497 1497 1497 1496 1496 1497 1497 1497 1496 1496 1494 1488 1484 1481 1480 1482 1478 1477 1479 1478 1475 1472 1469 1467 1466 1465 1464 1462 1461 1460 1461 1463 1465 1465 1466 1468
1538 1536 1534 1532 1531 1529 1528 1527 1525 1524 1522 1520 1518 1516 1517 1519 1519 1517 1514 1510 1510 1511 1511 1510 1511 1511 1509 1507 1507 1507 1506 1505 1504 1504 1503 1504 1504 1504 1503 1503 1503 1504 1503 1502 1502 1501 1502 1506 1505 1500 1497 1495 1494 1494 1494 1495 1495 1495 1496 1495 1493 1493 1490 1484 1482 1479 1478 1481 1478 1475 1477 1476 1473 1471 1468 1466 1465 1464 1462 1462 1461 1460 1459 1461 1463 1465 1465 1466
1538 1536 1533 1532 1530 1529 1528 1527 1526 1525 1523 1522 1520 1519 1521 1523 1522 1521 1519 1515 1511 1510 1510 1509 1510 1509 1508 1507 1507 1507 1507 1505 1504 1503 1503 1503 1503 1503 1503 1503 1504 1504 1502 1502 1503 1503 1505 1505 1501 1496 1494 1494 1494 1493 1493 1493 1493 1493 1493 1493 1493 1490 1486 1482 1479 1477 1476 1479 1478 1474 1475 1472 1468 1467 1466 1464 1463 1461 1459 1459 1459 1458 1458 1458 1461 1463 1464 1465
1537 1535 1533 1531 1529 1528 1528 1527 1526 1525 1524 1522 1522 1522 1522 1522 1522 1521 1521 1519 1514 1510 1509 1509 1509 1508 1507 1508 1507 1507 1506 1505 1504 1503 1503 1503 1503 1503 1503 1503 1503 1502 1501 1502 1505 1507 1508 1503 1496 1494 1493 1494 1494 1492 1491 1491 1490 1491 1491 1493 1493 1487 1485 1484 1480 1476 1475 1476 1477 1475 1474 1469 1463 1463 1462 1461 1460 1458 1457 1456 1456 1456 1456 1456 1458 1460 1462 1462
1537 1534 1533 1530 1529 1528 1527 1527 1526 1525 1524 1523 1522 1523 1522 1522 1521 1521 1520 1520 1516 1511 1508 1509 1509 1508 1508 1507 1507 1507 1506 1505 1504 1503 1503 1503 1502 1502 1502 1503 1503 1503 1502 1502 1503 1506 1505 1499 1494 1494 1493 1493 1493 1491 1490 1490 1489 1489 1487 1489 1489 1485 1484 1484 1480 1477 1475 1475 1474 1474 1477 1471 1463 1463 1460 1457 1458 1455 1454 1454 1453 1453 1453 1453 1455 1457 1458 1459
1536 1534 1532 1530 1529 1528 1527 1527 1526 1525 1525 1523 1523 1523 1522 1521 1520 1519 1520 1519 1517 1512 1509 1509 1509 1509 1508 1508 1507 1506 1506 1505 1503 1502 1502 1502 1501 1501 1502 1502 1503 1503 1503 1501 1502 1502 1500 1495 1493 1494 1492 1491 1493 1492 1491 1490 1492 1492 1487 1484 1483 1481 1481 1480 1479 1479 1481 1481 1474 1475 1485 1477 1465 1465 1461 1456 1457 1454 1452 1452 1451 1451 1450 1450 1451 1452 1454 1455
1535 1534 1531 1530 1529 1527 1527 1527 1526 1526 1525 1524 1524 1522 1522 1521 1519 1519 1519 1519 1517 1513 1510 1510 1510 1510 1508 1508 1507 1506 1507 1505 1501 1501 1501 1500 1501 1501 1502 1502 1502 1503 1501 1500 1501 1501 1497 1493 1493 1494 1493 1492 1492 1492 1490 1489 1495 1496 1488 1482 1481 1480 1480 1479 1479 1481 1484 1483 1473 1473 1485 1483 1470 1463 1459 1456 1455 1452 1450 1450 1449 1449 1448 1447 1447 1448 1449 1450
1535 1533 1531 1530 1528 1527 1527 1526 1526 1526 1524 1524 1523 1521 1522 1520 1519 1519 1518 1521 1522 1514 1511 1512 1510 1510 1509 1507 1506 1506 1509 1505 1500 1500 1500 1500 1500 1500 1502 1502 1502 1502 1499 1500 1504 1502 1497 1494 1493 1493 1493 1494 1494 1493 1488 1488 1495 1495 1485 1482 1483 1483 1483 1480 1478 1480 1480 1477 1474 1472 1478 1484 1475 1459 1453 1454 1453 1450 1449 1448 1447 1446 1446 1445 1444 1444 1444 1446
1534 1533 1531 1529 1528 1528 1527 1526 1526 1525 1524 1523 1521 1521 1521 1518 1520 1519 1518 1527 1527 1515 1513 1514 1510 1510 1508 1506 1504 1504 1505 1503 1501 1500 1498 1499 1500 1499 1501 1501 1501 1501 1498 1502 1508 1503 1496 1496 1495 1493 1495 1495 1494 1491 1487 1487 1491 1488 1483 1483 1483 1482 1482 1479 1477 1478 1477 1477 1479 1476 1474 1484 1477 1454 1448 1453 1452 1450 1448 1447 1447 1445 1443 1443 1442 1442 1442 1442
1534 1532 1531 1530 1529 1528 1527 1526 1525 1524 1523 1522 1520 1520 1519 1518 1520 1518 1519 1529 1526 1515 1515 1514 1510 1511 1508 1504 1503 1502 1501 1500 1501 1500 1497 1499 1499 1498 1500 1499 1499 1500 1498 1501 1505 1501 1497 1496 1494 1493 1495 1495 1491 1488 1487 1487 1488 1484 1481 1481 1480 1480 1479 1479 1479 1478 1479 1481 1483 1477 1473 1484 1477 1452 1448 1456 1454 1452 1449 1446 1446 1443 1441 1440 1439 1440 1439 1440
1534 1532 1531 1530 1529 1528 1527 1526 1525 1524 1522 1520 1520 1519 1518 1519 1519 1520 1527 1531 1523 1517 1517 1514 1513 1513 1510 1507 1505 1502 1502 1501 1500 1499 1498 1499 1499 1499 1499 1499 1499 1500 1501 1502 1502 1500 1497 1493 1491 1491 1492 1491 1489 1488 1486 1486 1485 1482 1481 1480 1479 1479 1477 1478 1478 1477 1483 1486 1482 1474 1469 1478 1476 1452 1446 1454 1450 1448 1447 1444 1443 1441 1439 1437 1437 1438 1437 1438
1535 1533 1532 1530 1529 1528 1527 1526 1525 1523 1521 1520 1519 1518 1518 1519 1518 1526 1534 1528 1521 1521 1518 1516 1516 1513 1512 1514 1512 1507 1504 1502 1500 1500 1500 1499 1500 1501 1501 1501 1502 1502 1505 1505 1502 1500 1497 1492 1490 1490 1490 1489 1489 1488 1486 1485 1483 1482 1483 1482 1483 1483 1479 1480 1479 1479 1488 1487 1478 1472 1468 1474 1472 1452 1445 1449 1446 1444 1445 1443 1441 1439 1437 1435 1434 1435 1435 1436
1535 1533 1532 1531 1530 1528 1527 1526 1524 1523 1522 1519 1518 1518 1518 1520 1525 1533 1532 1524 1526 1528 1522 1520 1520 1516 1515 1515 1515 1511 1507 1506 1503 1502 1502 1501 1505 1508 1507 1507 1508 1509 1512 1510 1506 1503 1499 1493 1491 1490 1489 1489 1491 1491 1489 1486 1484 1485 1486 1487 1490 1491 1490 1491 1489 1486 1488 1483 1476 1476 1476 1475 1466 1450 1446 1447 1444 1444 1443 1440 1439 1437 1435 1433 1432 1432 1432 1433
1534 1533 1532 1531 1529 1528 1527 1526 1524 1523 1521 1518 1518 1518 1517 1525 1535 1537 1532 1530 1532 1529 1524 1523 1521 1519 1518 1516 1516 1514 1509 1509 1506 1504 1503 1502 1507 1511 1510 1509 1509 1512 1517 1514 1511 1509 1503 1495 1491 1491 1489 1488 1491 1495 1496 1491 1487 1488 1489 1489 1492 1496 1500 1500 1495 1491 1487 1480 1476 1478 1481 1477 1464 1451 1446 1446 1445 1445 1443 1440 1438 1436 1435 1432 1430 1430 1429 1430
1534 1533 1532 1531 1529 1528 1526 1525 1524 1522 1520 1518 1518 1517 1521 1532 1538 1535 1533 1533 1530 1526 1525 1524 1521 1520 1520 1520 1519 1516 1514 1513 1509 1507 1506 1504 1507 1511 1513 1512 1510 1512 1514 1514 1514 1514 1512 1503 1494 1493 1492 1489 1490 1493 1495 1493 1489 1486 1484 1486 1490 1492 1496 1496 1494 1493 1491 1486 1482 1481 1480 1474 1463 1452 1445 1444 1444 1442 1440 1439 1437 1436 1434 1431 1429 1428 1427 1427
1534 1533 1532 1531 1529 1528 1526 1525 1524 1522 1521 1519 1518 1521 1529 1538 1538 1534 1535 1532 1528 1527 1526 1524 1522 1522 1523 1522 1519 1517 1517 1517 1512 1509 1508 1508 1511 1513 1515 1515 1512 1512 1513 1515 1516 1515 1515 1507 1494 1493 1493 1491 1492 1490 1489 1491 1490 1483 1479 1484 1488 1488 1488 1491 1493 1493 1494 1494 1488 1481 1474 1465 1456 1449 1443 1443 1442 1439 1438 1437 1436 1436 1433 1430 1428 1426 1426 1426
1534 1533 1532 1531 1529 1528 1526 1526 1524 1523 1522 1520 1522 1529 1535 1537 1535 1533 1532 1529 1528 1529 1527 1525 1524 1526 1528 1525 1521 1518 1517 1516 1515 1512 1510 1511 1513 1514 1516 1515 1513 1513 1513 1516 1518 1517 1517 1506 1493 1492 1492 1488 1491 1490 1487 1491 1490 1483 1481 1486 1489 1488 1487 1491 1495 1494 1497 1499 1487 1475 1471 1464 1457 1451 1443 1442 1442 1440 1440 1438 1436 1435 1433 1430 1427 1426 1426 1426
1534 1533 1532 1531 1529 1528 1527 1526 1524 1524 1523 1521 1525 1532 1533 1532 1531 1530 1529 1528 1528 1528 1529 1531 1529 1528 1531 1529 1525 1522 1519 1516 1516 1516 1514 1514 1515 1516 1516 1514 1513 1513 1513 1514 1516 1518 1520 1509 1494 1493 1492 1487 1488 1487 1483 1485 1487 1486 1486 1487 1488 1490 1490 1493 1497 1496 1498 1496 1482 1472 1471 1468 1466 1459 1445 1441 1442 1440 1440 1438 1436 1434 1432 1431 1428 1427 1427 1425
1534 1533 1532 1531 1530 1529 1528 1527 1525 1525 1524 1523 1527 1530 1530 1530 1530 1529 1528 1527 1527 1527 1530 1534 1531 1529 1531 1531 1529 1525 1521 1520 1519 1518 1516 1515 1516 1516 1514 1514 1513 1512 1512 1512 1513 1518 1521 1514 1498 1492 1493 1489 1486 1487 1485 1482 1484 1487 1488 1487 1488 1491 1493 1496 1498 1495 1493 1492 1482 1472 1470 1468 1467 1460 1449 1446 1445 1441 1440 1438 1436 1434 1433 1432 1429 1427 1426 1425
1534 1533 1532 1531 1531 1530 1529 1528 1526 1525 1524 1527 1531 1531 1529 1530 1530 1529 1529 1527 1526 1528 1530 1532 1531 1529 1529 1530 1530 1526 1522 1523 1522 1520 1518 1516 1517 1515 1512 1513 1513 1512 1512 1511 1514 1517 1520 1520 1507 1493 1493 1494 1489 1490 1493 1490 1487 1486 1487 1488 1490 1491 1492 1494 1495 1491 1489 1489 1484 1475 1471 1468 1460 1453 1450 1449 1445 1442 1441 1438 1436 1434 1432 1432 1430 1428 1426 1425
1534 1533 1533 1533 1532 1531 1529 1528 1527 1526 1527 1531 1533 1532 1529 1530 1530 1529 1529 1527 1526 1528 1530 1530 1529 1530 1530 1528 1528 1526 1523 1523 1522 1521 1518 1516 1516 1515 1512 1512 1512 1512 1512 1512 1515 1517 1518 1524 1516 1497 1492 1496 1493 1492 1495 1495 1494 1493 1493 1492 1491 1492 1493 1492 1491 1488 1487 1487 1487 1483 1476 1464 1453 1448 1448 1446 1442 1441 1440 1437 1435 1433 1431 1430 1429 1428 1426 1424
1534 1534 1534 1533 1532 1531 1530 1529 1528 1528 1531 1533 1533 1531 1530 1530 1531 1530 1529 1528 1527 1527 1528 1528 1529 1530 1530 1528 1527 1526 1524 1523 1521 1520 1518 1516 1517 1516 1513 1511 1511 1512 1513 1513 1516 1517 1518 1523 1520 1508 1501 1500 1494 1490 1491 1493 1494 1496 1496 1495 1494 1494 1494 1491 1488 1486 1485 1484 1483 1484 1478 1461 1449 1447 1445 1443 1441 1440 1438 1435 1433 1431 1430 1429 1428 1427 1425 1423
1535 1535 1535 1533 1532 1531 1530 1531 1532 1531 1533 1535 1534 1532 1531 1531 1531 1531 1530 1529 1528 1528 1528 1528 1528 1529 1528 1527 1527 1525 1524 1524 1521 1519 1519 1517 1517 1515 1512 1511 1512 1511 1513 1516 1517 1516 1517 1521 1521 1515 1507 1499 1491 1487 1488 1491 1491 1492 1493 1493 1496 1496 1493 1491 1486 1483 1484 1481 1478 1484 1482 1462 1448 1446 1444 1442 1441 1438 1435 1434 1432 1430 1428 1427 1426 1425 1424 1422
1536 1536 1535 1533 1532 1531 1530 1533 1535 1534 1534 1535 1533 1532 1531 1531 1532 1532 1531 1531 1530 1530 1530 1529 1529 1529 1528 1527 1527 1526 1524 1523 1520 1519 1520 1518 1516 1514 1512 1511 1512 1511 1513 1516 1516 1515 1516 1519 1520 1513 1500 1492 1490 1490 1490 1490 1490 1491 1491 1491 1494 1495 1492 1490 1485 1482 1484 1480 1478 1486 1482 1461 1447 1445 1443 1441 1440 1437 1434 1432 1430 1428 1426 1425 1425 1423 1421 1419
1536 1536 1535 1534 1533 1531 1531 1536 1538 1537 1536 1535 1533 1533 1532 1533 1533 1533 1533 1533 1533 1532 1532 1531 1529 1530 1529 1528 1527 1526 1525 1525 1523 1520 1520 1520 1517 1514 1512 1512 1511 1512 1513 1513 1514 1514 1515 1518 1520 1515 1503 1493 1491 1493 1493 1491 1492 1493 1493 1491 1491 1491 1489 1487 1484 1483 1482 1475 1473 1481 1475 1455 1446 1445 1443 1442 1441 1437 1434 1431 1429 1427 1424 1423 1422 1420 1419 1417
1537 1536 1535 1535 1534 1533 1534 1537 1538 1538 1537 1536 1535 1535 1534 1534 1535 1535 1534 1534 1534 1533 1533 1532 1530 1530 1529 1528 1528 1526 1525 1526 1526 1523 1521 1520 1516 1513 1512 1512 1511 1512 1512 1511 1512 1513 1514 1516 1518 1518 1512 1505 1501 1501 1498 1496 1497 1495 1492 1492 1490 1488 1488 1485 1481 1481 1480 1474 1473 1477 1470 1455 1448 1447 1446 1444 1443 1439 1435 1430 1427 1425 1423 1421 1419 1418 1417 1416
1539 1539 1538 1536 1534 1534 1536 1538 1538 1538 1538 1538 1537 1536 1536 1537 1536 1535 1534 1534 1534 1533 1532 1532 1530 1530 1529 1529 1529 1528 1526 1525 1525 1524 1522 1520 1516 1513 1512 1512 1511 1510 1510 1511 1511 1512 1516 1517 1516 1516 1515 1511 1509 1505 1500 1499 1501 1497 1493 1493 1491 1489 1488 1484 1481 1483 1482 1478 1475 1472 1468 1461 1455 1452 1449 1447 1445 1442 1437 1432 1428 1425 1422 1420 1417 1416 1416 1416
1542 1543 1543 1541 1538 1535 1536 1537 1537 1538 1537 1537 1537 1536 1538 1539 1537 1535 1534 1534 1534 1533 1532 1531 1530 1531 1532 1531 1531 1530 1526 1525 1525 1523 1522 1519 1516 1513 1511 1510 1510 1509 1510 1511 1511 1513 1517 1515 1511 1512 1511 1507 1506 1503 1497 1498 1501 1499 1496 1495 1493 1492 1489 1485 1486 1488 1484 1479 1475 1471 1469 1466 1459 1454 1452 1450 1447 1443 1439 1434 1430 1426 1423 1419 1416 1414 1413 1414
1544 1545 1546 1546 1544 1541 1540 1539 1538 1538 1537 1536 1537 1537 1538 1539 1538 1537 1536 1534 1534 1533 1532 1532 1531 1531 1532 1532 1533 1531 1528 1527 1526 1522 1520 1518 1515 1514 1511 1509 1508 1508 1509 1511 1511 1512 1515 1512 1508 1507 1504 1500 1500 1499 1495 1496 1498 1497 1497 1498 1496 1494 1491 1489 1489 1488 1484 1482 1480 1475 1472 1467 1460 1455 1453 1450 1448 1444 1440 1435 1431 1427 1423 1419 1415 1413 1411 1411
1545 1546 1545 1545 1545 1544 1543 1541 1539 1539 1538 1536 1537 1538 1539 1539 1539 1538 1536 1535 1534 1533 1533 1534 1532 1531 1531 1531 1532 1532 1530 1529 1527 1523 1520 1518 1515 1514 1513 1509 1508 1508 1509 1511 1512 1512 1513 1510 1507 1507 1503 1497 1494 1494 1493 1494 1494 1494 1496 1497 1495 1493 1491 1489 1488 1486 1483 1482 1480 1475 1471 1465 1459 1455 1452 1449 1447 1444 1439 1435 1431 1427 1423 1418 1415 1413 1410 1409
1546 1546 1546 1545 1544 1543 1543 1541 1539 1539 1537 1537 1538 1539 1539 1539 1539 1538 1535 1535 1535 1534 1533 1533 1532 1531 1530 1529 1530 1530 1527 1526 1527 1524 1520 1518 1515 1513 1513 1510 1508 1508 1509 1510 1511 1512 1511 1508 1506 1507 1505 1497 1490 1489 1491 1492 1492 1493 1494 1494 1493 1491 1489 1488 1488 1485 1482 1479 1476 1472 1468 1462 1456 1453 1451 1448 1445 1441 1436 1432 1428 1424 1421 1418 1415 1412 1409 1407
1546 1547 1546 1545 1544 1542 1542 1541 1539 1538 1538 1539 1540 1540 1539 1539 1538 1537 1535 1533 1534 1533 1532 1532 1531 1529 1528 1528 1528 1526 1522 1521 1521 1519 1516 1517 1514 1511 1510 1508 1506 1508 1509 1508 1509 1511 1512 1510 1506 1507 1508 1499 1488 1488 1490 1490 1491 1493 1493 1494 1494 1491 1489 1489 1489 1486 1483 1480 1475 1469 1466 1461 1455 1451 1449 1445 1441 1439 1434 1430 1426 1422 1419 1418 1415 1411 1408 1406
1547 1547 1546 1546 1545 1543 1542 1542 1540 1540 1540 1540 1540 1539 1539 1538 1537 1536 1535 1533 1531 1531 1531 1530 1530 1529 1528 1527 1525 1522 1519 1516 1515 1513 1511 1511 1508 1506 1505 1504 1503 1506 1506 1506 1507 1508 1509 1509 1507 1508 1509 1499 1488 1490 1491 1489 1491 1495 1495 1494 1493 1492 1490 1488 1486 1485 1483 1480 1477 1472 1467 1461 1455 1452 1448 1443 1438 1435 1431 1427 1424 1421 1417 1415 1413 1410 1406 1404